Regional Weather Roundup
Issued by NWS

Home | Current Version | Previous Version | Graphics & Text | Print | Product List | Glossary On
Versions: 1 2 3 4 5 6 7 8 9 10 11 12 13 14 15 16 17 18 19 20 21 22 23 24 25 26 27 28 29 30 31 32 33 34 35 36 37 38 39 40 41 42 43 44 45 46 47 48 49 50
000
ASUS43 KFSD 291510
RWRSD

WEATHER ROUNDUP FOR SOUTH DAKOTA
NATIONAL WEATHER SERVICE SIOUX FALLS SD
1000 AM CDT WED JUL 29 2015

NOTE: "FAIR" INDICATES FEW OR NO CLOUDS BELOW 12,000 FEET WITH NO
SIGNIFICANT WEATHER AND/OR OBSTRUCTIONS TO VISIBILITY.


SDZ001>005-009-010-012>017-291600-
NORTHWEST AND NORTH CENTRAL SOUTH DAKOTA

CITY           SKY/WX    TMP DP  RH WIND       PRES   REMARKS
BUFFALO          N/A     71  40  32 W18       30.13R
FAITH            N/A     72  39  30 W21       30.16S
MOBRIDGE       SUNNY     74  48  39 W16       30.06R
$$

SDZ012>016-024>037-041>051-057-063-072>074-291600-
SOUTHWEST AND SOUTH CENTRAL SOUTH DAKOTA

CITY           SKY/WX    TMP DP  RH WIND       PRES   REMARKS
RAPID CTY ARPT SUNNY     72  44  36 W12       30.26R
PIERRE         SUNNY     73  48  41 SW8       30.12S
CUSTER         SUNNY     62  37  39 W7        30.38R
ELLSWORTH AFB  SUNNY     73  42  32 W14       30.25R
PHILIP         SUNNY     70  50  49 SW15      30.20R
PINE RIDGE     SUNNY     67  45  45 W5        30.31R
SPEARFISH      FAIR      68  39  34 W14G22    30.29R
WINNER         FAIR      79  43  27 W16       30.20R
$$

SDZ004>011-016>023-039-040-291600-
NORTHEAST SOUTH DAKOTA

CITY           SKY/WX    TMP DP  RH WIND       PRES   REMARKS
ABERDEEN       SUNNY     73  50  44 W17G25    30.03R
WATERTOWN      SUNNY     69  51  52 W20       30.05R
BROOKINGS      SUNNY     70  52  52 W17G24    30.10S
SISSETON         N/A     72  52  49 W21G28    29.95R
$$

SDZ017-020-022-023-036>040-048>070-291600-
SOUTHEAST SOUTH DAKOTA

CITY           SKY/WX    TMP DP  RH WIND       PRES   REMARKS
SIOUX FALLS    MOSUNNY   71  55  56 VRB7      30.13R
HURON          SUNNY     72  52  49 W12       30.09R
CHAMBERLAIN    SUNNY     70  52  52 W5        30.17R
MITCHELL       SUNNY     75  52  44 W14G21    30.13R
YANKTON        SUNNY     73  55  53 SW13      30.16S
$$

ABBREVIATIONS USED IN REMARKS
   TC - TEMPERATURE IN CELSIUS
  WCI - WIND CHILL INDEX
   HX - HEAT INDEX
  VSB - VISIBILITY



USA.gov is the U.S. government's official web portal to all federal, state and local government web resources and services.